Location: *
(28.2408°N, 53.4600°E)
Time: 11:22:37
(UTC+00:00)

Delta 198 - Pass Details

Date: 22 September 2019
Orbit: 458 x 1021 km, 24.8° (Epoch: 17 October)

Event Time Altitude Azimuth Distance (km) Brightness Sun altitude
Rises 14:52:14 0° 254° (WSW) 2,691 8.4 -7.2°
Reaches altitude 10° 14:54:22 10° 249° (WSW) 1,871 7.2 -7.7°
Maximum altitude 14:58:37 53° 172° (S) 789 4.0 -8.6°
Enters shadow 15:03:12 12° 98° (E) 2,053 5.5 -9.6°
